Change the Weather History Date:

Monday, July 1, 2013

  Actual Average Record
Temperature  
Mean Temperature 54 °F -  
Max Temperature 64 °F 67 °F 84 °F (2002)
Min Temperature 46 °F 49 °F 43 °F (2007)
Degree Days  
Heating Degree Days 10    
Growing Degree Days 4 (Base 50)    
Moisture  
Dew Point 43 °F    
Average Humidity 72    
Maximum Humidity 86    
Minimum Humidity 52    
Precipitation  
Precipitation 0.00 in - - ()
Sea Level Pressure  
Sea Level Pressure 30.22 in    
Wind  
Wind Speed 3 mph (NNE)    
Max Wind Speed 10 mph    
Max Gust Speed -    
Averages and records for this station are not official NWS values.
T = Trace of Precipitation, MM = Missing Value Source: NWS Daily Summary

Daily Weather History Graph

Daily Weather History Graph

Search for Another Location

Airport or City:

Trip Planner

Search our weather history database for the weather conditions in past years. The results will help you decide how hot, cold, wet, or windy it might be!

Date:

Astronomy

Jul. 01, 2013 Rise Set
Actual Time 5:58 AM EDT 9:52 PM EDT
Civil Twilight 5:18 AM EDT 10:32 PM EDT
Nautical Twilight 4:23 AM EDT 11:27 PM EDT
Astronomical Twilight 2:59 AM EDT 12:50 AM EDT
Moon 1:45 AM EDT (7/1) 3:52 PM EDT (7/1)
Length of Visible Light 17h 13m
Length of Day
15h 53m
Waning Crescent, 35% of the Moon is Illuminated
Jul 1
Waning Crescent
Jul 8
New
Jul 15
First Quarter
Jul 22
Full
Jul 29
Last Quarter

Hourly Weather History & Observations

Time (EDT) Temp. Windchill Dew Point Humidity Pressure Visibility Wind Dir Wind Speed Gust Speed Precip Events Conditions
12:51 AM 63.0 °F - 45.0 °F 52% 30.09 in - Calm Calm - N/A   Unknown
1:51 AM 55.9 °F - 45.0 °F 67% 30.11 in - North 10.4 mph - N/A   Unknown
2:51 AM 51.1 °F - 45.0 °F 80% 30.14 in - North 9.2 mph - N/A   Unknown
3:51 AM 46.9 °F - 42.1 °F 83% 30.15 in - Calm Calm - N/A   Unknown
4:51 AM 46.9 °F - 42.1 °F 83% 30.16 in - Calm Calm - N/A   Unknown
5:51 AM 46.0 °F 44.8 °F 41.0 °F 83% 30.19 in - SW 3.5 mph - N/A   Unknown
6:51 AM 46.9 °F - 43.0 °F 86% 30.22 in - Calm Calm - N/A   Unknown
7:51 AM 52.0 °F - 44.1 °F 74% 30.23 in - Calm Calm - N/A   Unknown
8:51 AM 50.0 °F - 43.0 °F 77% 30.25 in - Calm Calm - N/A   Unknown
9:51 AM 53.1 °F - 42.1 °F 66% 30.25 in - Variable 5.8 mph - N/A   Unknown
10:51 AM 50.0 °F - 42.1 °F 74% 30.26 in - NE 4.6 mph - N/A   Unknown
11:51 AM 51.1 °F - 43.0 °F 74% 30.27 in - NE 3.5 mph - N/A   Unknown
12:51 PM 53.1 °F - 43.0 °F 69% 30.28 in - Variable 4.6 mph - N/A   Unknown
1:51 PM 52.0 °F - 43.0 °F 71% 30.27 in - East 6.9 mph - N/A   Unknown
2:51 PM 51.1 °F - 43.0 °F 74% 30.28 in - ENE 5.8 mph - N/A   Unknown
3:51 PM 51.1 °F - 43.0 °F 74% 30.28 in - NE 4.6 mph - N/A   Unknown
4:51 PM 51.1 °F - 43.0 °F 74% 30.27 in - Calm Calm - N/A   Unknown
5:51 PM 53.1 °F - 43.0 °F 69% 30.26 in - Calm Calm - N/A   Unknown
6:51 PM 57.0 °F - 39.9 °F 53% 30.25 in - Calm Calm - N/A   Unknown
7:51 PM 55.9 °F - 45.0 °F 67% 30.23 in - Calm Calm - N/A   Unknown
8:51 PM 55.9 °F - 44.1 °F 64% 30.23 in - Calm Calm - N/A   Unknown
9:51 PM 53.1 °F - 45.0 °F 74% 30.22 in - WSW 4.6 mph - N/A   Unknown
10:51 PM 50.0 °F - 43.0 °F 77% 30.23 in - WSW 6.9 mph - N/A   Unknown
11:51 PM 48.0 °F - 39.9 °F 74% 30.23 in - WSW 6.9 mph - N/A   Unknown